Погода Новоанненский

Погода Новоанненский : погода сейчас, прогноз погоды и архив. Всё, что Вы хотите узнать о погоде Новоанненский!

Поиск расширенной информации на нашем сайте:

Другие новости

Новости СМИ2

Главная страница сайта

Новости сайта

03.07.2017

Напоминаем, что на нашем специализированном сайте Метеоцентр.Азия вы можете получить высокодетализированные автоматические прогнозы погоды по пунктам России, СНГ и мира в авиационном формате (включающие направление и скорость ветра, видимость, явления погоды, количество и форму облачности, нижнюю и верхнюю границу облачности).


Погода Новоанненский - сегодня

Время (UTC), дата Ветер
(°,м/с) 
Видим.   Явления Облачность Т
(°С)
Тd
(°С)
f(%) Тe
(°С)
Pmin
(гПа)
dP
(гПа)
Po
(мм)
O2
(г/м3)
Тmin Tmax R s Состояние
почвы
00 19.11.17 140 (ЮВ) 20000 м    10/10 600 м 
[Sc diur, vesp]
+1.2 -0.2 90 +1  1020.6  -1.5  756  303           
03 19.11.17 140 (ЮВ) 20000 м    10/10 600 м 
[Sc diur, vesp]
+1.8 +0.6 92 +1  1019.2  -1.4  755  302  -0.7         
06 19.11.17 150 (ЮВ) 4000 м  дымка  10/10 300 м 
[St]
+2.6 +1.6 93 +1  1018.7  -0.5  755  301           
09 19.11.17 140 (ЮВ) н/о    н/о 
+3.7 +2.5 92 +3  1016.8  -1.9  753  299           
12 19.11.17 150 (ЮВ) 20000 м    10/10 600 м 
[Sc diur, vesp]
+4.5 +3.5 93 +3  1014.9  -1.8  752  298           
15 19.11.17 150 (ЮВ) 20000 м    10/10 600 м 
[Sc diur, vesp]
+5.3 +4.4 94 +4  1014.1  -0.7  752  296    +5.3       
18 19.11.17 160 (Ю) 4000 м  дымка  10/10 300 м 
[St]
+6.2 +5.3 94 +5  1013.5  -0.6  751  295           
21 19.11.17 160 (Ю) 4000 м  дымка  10/10 300 м 
[St]
+7.4 +6.5 94 +7  1013.3  0.1  751  294           
00 20.11.17 160 (Ю) 4000 м  дымка  10/10 300 м 
[St]
+7.6 +6.3 91 +7  1013  -0.3  751  293           
03 20.11.17 160 (Ю) 20000 м    10/10 600 м 
[Sc diur, vesp]
+7.5 +6.4 93 +7  1012.7  -0.3  751  293  +5.3         
06 20.11.17 150 (ЮВ) 4000 м  дымка  10/10 300 м 
[St]
+7.2 +6.1 93 +6  1013.1  0.4  751  294           
09 20.11.17 150 (ЮВ) 20000 м    10/10 600 м 
[Sc]
+7.6 +6.1 90 +7  1012.3  -0.8  750  293           
12 20.11.17 160 (Ю) 20000 м    10/10 600 м 
[Sc]
+7.9 +6.3 90 +7  1011.4  -0.9  750  293           
15 20.11.17 150 (ЮВ) 20000 м    10/10 600 м 
[Sc]
+7.6 +6.5 93 +6  1010.2  -1.1  749  292    +8  0.7     
18 20.11.17 150 (ЮВ) 20000 м    10/10 600 м 
[Sc]
+7.6 +6.6 93 +6  1009.3  -0.9  748  292           
21 20.11.17 160 (Ю) 3{10}  4000 м  дымка  10/10 300 м 
[St]
+6.8 +5.9 94 +6  1008.6  -0.7  748  293           
00 21.11.17 160 (Ю) 20000 м    10/10 600 м 
[Sc]
+5.5 +4.4 93 +5  1006.2  -2.4  746  294           
03 21.11.17 140 (ЮВ) 20000 м    10/10 600 м 
[Sc]
+4.4 +3.1 91 +3  1006.3  -0.1  746  295  +4.4         
06 21.11.17 130 (ЮВ) 20000 м    10/10 600 м 
[Sc]
+3.6 +2.4 92 +2  1005.2  -1.1  745  296  +3.6         
09 21.11.17 160 (Ю) 4000 м  слаб. дождь  10/10 600 м 
[Frnb]
+4.9 +3.7 92 +5  1005.3  0.2  745  294           
12 21.11.17 140 (ЮВ) 20000 м  {дождь}  10/10 600 м 
[Frnb|Ns]
+6.5 +4.9 89 +6  1003.9  -1.2  744  292           
15 21.11.17 140 (ЮВ) 20000 м    9/9 600 м 
[Sc]
+4.7 +2.9 88 +4  1003.5  -0.5  744  294    +6.5  0.4     
18 21.11.17 090 (В) 20000 м    9/9 600 м 
[Sc]
+2.6 +1.4 92 +1  1002.1  -1.5  743  296           
21 21.11.17 110 (В) 20000 м    10/10 600 м 
[Sc]
+2.5 +0.7 88 +3  1002.1  743  296           
00 22.11.17 080 (В) 20000 м    10/10 600 м 
[Sc]
+2.3 +0.9 90 +2  1001  -1.1  742  296           
Время (UTC), дата Ветер
(°,м/с) 
Видим.   Явления Облачность Т
(°С)
Тd
(°С)
f(%) Тe
(°С)
Pmin
(гПа)
dP
(гПа)
Po
(мм)
O2
(г/м3)
Тmin Tmax R s Состояние
почвы

Для получения пояснительной информации подведите курсор к названию столбца.

ПОГОДА Новоанненский - архив

Всё, что Вы хотите узнать о погоде Новоанненский - удобно и подробно!

Выберите нужную дату (начиная с 1 января 2015* года) и нажмите кнопку "Найти".
Будут отображены архивные сводки погоды по пункту Новоанненский, начиная с указанной даты.


Отображать данные в формате CSV (для использования в таблицах Excel)


Внимание! Наш архив погоды предназначен исключительно для личного некоммерческого использования в познавательных целях. Если Вам необходимы официальные справки о состоянии погоды (для производственных, юридических, коммерческих и т.п. целей), обращайтесь в органы Росгидромета.

*Примечание: данная дата относится к архиву по метеостанциям СССР (Россия, СНГ, Балтия).
Архив по метеостанциям Зарубежной Европы и Азии (кроме Китая) хранится 10 дней, по другим регионам земного шара (Китай, Африка, Америка, Австралия, Океания) - 1 день.

Новоанненский - район местоположения метеостанции


Название, широта, долгота, высота метеостанции:
Новоанненский 50.5°ш. 42.7°д. 98 м над ур. моря [Российская Федерация]

Дополнительная информация

В oтличие oт бoльшинства пoгoдных сайтoв мы публикуем пoдрoбную метеoинфoрмацию в детальнoм прoфессиoнальнoм фoрмате.

Характеристики температуры и влажнoсти вoздуха измеряются на высoте 2 м в тени вдали oт зданий и деревьев.
Скoрoсть ветра измеряется на высoте 10 м (на урoвне рoста челoвека скoрoсть ветра ниже в 1.5-2 раза). Если метеoстанция нахoдится в гoрoде или в лесу, тo скoрoсть ветра занижена на 2-4 м/с пo сравнению с oткрытым местoм. Скoрoсть ветра над акватoриями крупных рек и oзёр, а также на вершинах хoлмoв на 2-5 м/с выше, чем в oбычных услoвиях.
Атмoсфернoе давление в разных тoчках местнoсти мoжет значительнo oтличаться oт давления на метеoстанции, в зависимoсти oт услoвий рельефа (при пoдъёме на 10 м давление пoнижается примернo на 1 мм рт.ст.).